Simultaneous Nadir Overpasses (SNOs) Predictions

Prediction of SNOs between LANDSAT-8 and METOP-A Satellite Orbit:

Table of predicted SNOs for the next 14.0 days since TLE Epoch: 2/7/2014
Index Date (LANDSAT-8) Time (LANDSAT-8) Lat,Lon (LANDSAT-8) SZA (LANDSAT-8 ) Date (METOP-A) Time (METOP-A) Lat,Lon (METOP-A) SZA (METOP-A ) Distance(km) Time Diff (sec)
1 02/07/2014 19:16:55 -81.16, 110.99 82.04 02/07/2014 19:16:09 -81.17, 111.09 82.04 1.90 46
2 02/07/2014 20:06:20 81.19, -80.86 98.03 02/07/2014 20:06:48 81.19, -80.79 98.04 1.08 28
3 02/10/2014 14:51:06 -81.19, 177.80 82.89 02/10/2014 14:50:31 -81.18, 177.79 82.91 0.60 35
4 02/10/2014 15:40:32 81.19, -14.43 97.12 02/10/2014 15:41:11 81.19, -14.50 97.13 1.26 39
5 02/13/2014 10:25:18 -81.17,-115.93 83.85 02/13/2014 10:24:54 -81.18,-115.89 83.85 0.75 24
6 02/13/2014 11:14:43 81.20, 52.19 96.22 02/13/2014 11:15:33 81.20, 52.16 96.23 0.81 50
7 02/16/2014 05:59:28 -81.18, -49.46 84.80 02/16/2014 05:59:16 -81.17, -49.58 84.81 2.01 12
8 02/16/2014 06:48:53 81.20, 118.64 95.26 02/16/2014 06:49:54 81.21, 118.81 95.30 2.89 61
9 02/19/2014 00:44:13 81.15,-151.08 94.18 02/19/2014 00:42:59 81.16,-150.95 94.17 2.47 74
10 02/19/2014 01:33:38 -81.19, 17.20 85.75 02/19/2014 01:33:38 -81.18, 17.10 85.76 1.83 0




NCC Satellite Simultaneous Nadir Overpasses (SNOs) Prediction Service
